Change the Weather History Date:

Sunday, January 22, 2012

  Actual Average (KMFE) Record (KMFE)
Temperature  
Mean Temperature 75 °F 61 °F  
Max Temperature 84 °F 71 °F 89 °F (1943)
Min Temperature 66 °F 51 °F 25 °F (1922)
Degree Days  
Heating Degree Days 0 6  
Month to date heating degree days 143  
Since 1 July heating degree days 380  
Cooling Degree Days 10 2  
Month to date cooling degree days 44  
Year to date cooling degree days 44  
Growing Degree Days 25 (Base 50)    
Moisture  
Dew Point 67 °F    
Average Humidity 75    
Maximum Humidity 92    
Minimum Humidity 55    
Precipitation  
Precipitation 0.00 in 0.04 in 0.87 in (1975)
Month to date precipitation 0.73  
Year to date precipitation 0.73  
Sea Level Pressure  
Sea Level Pressure 29.81 in    
Wind  
Wind Speed 10 mph (SSE)    
Max Wind Speed 20 mph    
Max Gust Speed 31 mph    
Visibility 7 miles    
Events      
T = Trace of Precipitation, MM = Missing Value Source: NWS Daily Summary

Daily Weather History Graph

Daily Weather History Graph

Search for Another Location

Airport or City:

Trip Planner

Search our weather history database for the weather conditions in past years. The results will help you decide how hot, cold, wet, or windy it might be!

Date:

Astronomy

Jan. 22, 2012 Rise Set
Actual Time 7:21 AM CST 6:07 PM CST
Civil Twilight 6:56 AM CST 6:31 PM CST
Nautical Twilight 6:28 AM CST 6:59 PM CST
Astronomical Twilight 6:00 AM CST 7:27 PM CST
Moon 6:39 AM CST (1/22) 5:48 PM CST (1/22)
Length of Visible Light 11h 35m
Length of Day
10h 46m
Waning Crescent, 0% of the Moon is Illuminated
Jan 22
Waning Crescent
Jan 23
New
Jan 30
First Quarter
Feb 7
Full
Feb 14
Last Quarter

Hourly Weather History & Observations

Time (CST) Temp. Heat Index Dew Point Humidity Pressure Visibility Wind Dir Wind Speed Gust Speed Precip Events Conditions
12:15 AM 66.2 °F - 63.1 °F 90% 29.86 in 3.0 mi SE 5.8 mph - N/A   Scattered Clouds
12:35 AM 67.1 °F - 64.6 °F 92% 29.85 in 4.0 mi SE 6.9 mph - N/A   Mostly Cloudy
12:55 AM 69.8 °F - 67.1 °F 91% 29.85 in 4.0 mi SSE 10.4 mph 16.1 mph N/A   Overcast
1:15 AM 71.4 °F - 68.2 °F 89% 29.85 in 4.0 mi SSE 6.9 mph - N/A   Overcast
1:55 AM 72.1 °F - 68.5 °F 88% 29.84 in 5.0 mi SSE 9.2 mph - N/A   Overcast
2:15 AM 72.7 °F - 68.7 °F 87% 29.84 in 5.0 mi SSE 11.5 mph - N/A   Overcast
2:35 AM 73.0 °F - 68.9 °F 87% 29.83 in 5.0 mi SSE 12.7 mph - N/A   Overcast
2:55 AM 73.2 °F - 68.9 °F 86% 29.82 in 5.0 mi SSE 10.4 mph - N/A   Overcast
3:15 AM 73.4 °F - 68.9 °F 86% 29.82 in 7.0 mi South 10.4 mph - N/A   Overcast
3:35 AM 73.4 °F - 68.5 °F 85% 29.81 in 7.0 mi SSE 10.4 mph - N/A   Overcast
3:55 AM 73.4 °F - 68.5 °F 85% 29.81 in 7.0 mi South 10.4 mph - N/A   Overcast
4:15 AM 73.4 °F - 68.4 °F 84% 29.80 in 7.0 mi South 12.7 mph - N/A   Overcast
4:35 AM 73.4 °F - 68.2 °F 84% 29.80 in 7.0 mi South 9.2 mph - N/A   Overcast
4:55 AM 73.6 °F - 68.2 °F 83% 29.81 in 7.0 mi South 11.5 mph - N/A   Overcast
5:15 AM 73.6 °F - 68.0 °F 83% 29.80 in 7.0 mi SSE 9.2 mph - N/A   Overcast
5:35 AM 73.4 °F - 68.0 °F 83% 29.80 in 7.0 mi SSE 11.5 mph - N/A   Overcast
6:15 AM 73.4 °F - 68.0 °F 83% 29.81 in 7.0 mi SSE 10.4 mph - N/A   Overcast
6:55 AM 73.4 °F - 67.8 °F 83% 29.81 in 7.0 mi SSE 11.5 mph - N/A   Overcast
7:15 AM 73.4 °F - 67.6 °F 82% 29.82 in 5.0 mi South 11.5 mph - N/A   Haze
7:35 AM 73.2 °F - 67.5 °F 82% 29.82 in 5.0 mi South 11.5 mph - N/A   Haze
8:15 AM 73.4 °F - 67.1 °F 81% 29.82 in 5.0 mi South 12.7 mph - N/A   Haze
8:35 AM 73.6 °F - 67.1 °F 80% 29.82 in 5.0 mi South 11.5 mph - N/A   Haze
8:55 AM 74.1 °F - 67.3 °F 79% 29.85 in 5.0 mi South 6.9 mph - N/A   Haze
9:15 AM 74.1 °F - 67.3 °F 79% 29.85 in 5.0 mi South 12.7 mph 18.4 mph N/A   Haze
9:35 AM 74.3 °F - 67.3 °F 79% 29.85 in 5.0 mi South 17.3 mph - N/A   Haze
9:55 AM 74.7 °F - 67.3 °F 78% 29.84 in 4.0 mi South 13.8 mph 19.6 mph N/A   Haze
10:35 AM 75.9 °F - 67.1 °F 74% 29.85 in 4.0 mi South 16.1 mph 20.7 mph N/A   Haze
11:15 AM 77.0 °F - 67.1 °F 71% 29.82 in 5.0 mi South 18.4 mph 31.1 mph N/A   Haze
11:35 AM 79.3 °F - 66.6 °F 65% 29.82 in 7.0 mi South 19.6 mph 25.3 mph N/A   Mostly Cloudy
11:55 AM 80.1 °F 82.2 °F 66.4 °F 63% 29.82 in 10.0 mi South 17.3 mph 21.9 mph N/A   Overcast
12:15 PM 79.7 °F - 66.4 °F 64% 29.81 in 10.0 mi South 17.3 mph - N/A   Overcast
12:35 PM 80.1 °F 82.2 °F 66.6 °F 63% 29.80 in 10.0 mi South 15.0 mph 19.6 mph N/A   Mostly Cloudy
12:55 PM 80.4 °F 82.7 °F 66.6 °F 63% 29.79 in 10.0 mi South 15.0 mph 21.9 mph N/A   Scattered Clouds
1:15 PM 81.1 °F 83.4 °F 66.6 °F 61% 29.77 in 10.0 mi South 16.1 mph 23.0 mph N/A   Scattered Clouds
1:35 PM 81.7 °F 84.0 °F 66.4 °F 60% 29.77 in 10.0 mi South 19.6 mph 23.0 mph N/A   Clear
1:55 PM 82.6 °F 84.9 °F 66.4 °F 58% 29.77 in 10.0 mi South 17.3 mph 21.9 mph N/A   Scattered Clouds
2:15 PM 83.7 °F 86.0 °F 66.4 °F 56% 29.77 in 10.0 mi South 13.8 mph 23.0 mph N/A   Clear
2:35 PM 83.1 °F 85.4 °F 66.2 °F 57% 29.77 in 10.0 mi South 12.7 mph - N/A   Clear
3:35 PM 84.2 °F 86.6 °F 66.2 °F 55% 29.77 in 10.0 mi South 9.2 mph - N/A   Clear
3:55 PM 84.0 °F 86.3 °F 66.0 °F 55% 29.76 in 10.0 mi South 11.5 mph - N/A   Clear
4:15 PM 84.2 °F 86.6 °F 66.2 °F 55% 29.77 in 10.0 mi SSE 11.5 mph - N/A   Clear
4:35 PM 83.8 °F 86.0 °F 66.2 °F 55% 29.77 in 10.0 mi SSE 8.1 mph - N/A   Clear
4:55 PM 83.7 °F 86.0 °F 66.2 °F 56% 29.78 in 10.0 mi South 5.8 mph - N/A   Clear
5:15 PM 83.3 °F 85.7 °F 66.6 °F 57% 29.78 in 10.0 mi SSE 6.9 mph - N/A   Clear
5:35 PM 82.2 °F 84.6 °F 66.6 °F 59% 29.78 in 10.0 mi SSE 6.9 mph - N/A   Clear
5:55 PM 80.8 °F 83.2 °F 67.1 °F 63% 29.78 in 7.0 mi SE 9.2 mph - N/A   Clear
6:15 PM 79.5 °F - 67.3 °F 66% 29.79 in 7.0 mi SE 8.1 mph - N/A   Clear
6:35 PM 76.8 °F - 66.6 °F 70% 29.80 in 7.0 mi SE 6.9 mph - N/A   Clear
6:55 PM 75.2 °F - 66.0 °F 73% 29.81 in 7.0 mi SE 3.5 mph - N/A   Clear
7:15 PM 73.6 °F - 65.5 °F 76% 29.82 in 7.0 mi SE 3.5 mph - N/A   Clear
7:55 PM 71.2 °F - 64.9 °F 80% 29.84 in 5.0 mi SSE 4.6 mph - N/A   Haze
8:15 PM 70.7 °F - 64.9 °F 82% 29.85 in 4.0 mi SE 3.5 mph - N/A   Haze
8:35 PM 69.8 °F - 64.8 °F 84% 29.85 in 4.0 mi SE 3.5 mph - N/A   Haze
8:55 PM 68.4 °F - 64.2 °F 87% 29.86 in 3.0 mi SSE 3.5 mph - N/A   Clear
9:15 PM 68.0 °F - 64.2 °F 88% 29.86 in 2.5 mi SSE 4.6 mph - N/A   Clear
9:35 PM 68.2 °F - 64.8 °F 89% 29.86 in 2.5 mi South 6.9 mph - N/A   Clear
9:55 PM 68.9 °F - 65.7 °F 89% 29.86 in 2.0 mi South 5.8 mph - N/A   Clear
10:15 PM 69.1 °F - 66.0 °F 90% 29.87 in 2.5 mi SSE 5.8 mph - N/A   Clear
10:35 PM 69.1 °F - 66.2 °F 91% 29.87 in 2.0 mi SSE 4.6 mph - N/A   Clear
10:55 PM 67.1 °F - 64.2 °F 90% 29.87 in 1.2 mi SE 4.6 mph - N/A   Mist
11:15 PM 65.7 °F - 63.0 °F 91% 29.87 in 0.8 mi SSE 3.5 mph - N/A Rain Heavy Rain
11:35 PM 64.8 °F - 62.4 °F 92% 29.87 in 0.2 mi Calm Calm - N/A Rain Light Rain